Location: Cronhütte
(48.9135°N, 9.6869°E)
Time: 23:16:40
(UTC+00:00)

Cosmos 2082 Rocket - Pass Details

Date: 23 May 2024
Orbit: 832 x 853 km, 71.0° (Epoch: 14 June)

Event Time Altitude Azimuth Distance (km) Brightness Sun altitude
Exits shadow 00:07:02 37° 184° (S) 1,313 2.7 -19.6°
Maximum altitude 00:09:20 68° 114° (ESE) 922 2.3 -19.5°
Drops below altitude 10° 00:15:01 10° 32° (NNE) 2,492 5.7 -19.3°
Sets 00:17:29 0° 30° (NNE) 3,431 6.8 -19.2°
